[Date Prev][Date Next][Thread Prev][Thread Next] - [Date Index][Thread Index][Author Index]

2 Line ISS Keps 5-14



ISS
1 25544U 98067A   05133.79761207  .00025742  00000-0  19971-3 0  4671
2 25544 051.6454 077.0295 0005995 116.0742 341.7016 15.71620045370278
----
Via the sarex mailing list at AMSAT.ORG courtesy of AMSAT-NA.
To unsubscribe, send "unsubscribe sarex" to Majordomo@amsat.org



AMSAT Top AMSAT Home